TimePDT,TemperatureF,Dew PointF,Humidity,Sea Level PressureIn,VisibilityMPH,Wind Direction,Wind SpeedMPH,Gust SpeedMPH,PrecipitationIn,Events,Conditions,WindDirDegrees,DateUTC
12:53 AM,82.9,55.9,39,29.93,10.0,SSW,3.5,-,N/A,,Clear,200,2013-07-31 07:53:00
1:53 AM,84.0,54.0,35,29.92,10.0,NW,3.5,-,N/A,,Clear,310,2013-07-31 08:53:00
2:53 AM,82.0,55.0,39,29.92,10.0,SSE,3.5,-,N/A,,Clear,160,2013-07-31 09:53:00
3:53 AM,81.0,54.0,39,29.92,10.0,NW,5.8,-,N/A,,Clear,320,2013-07-31 10:53:00
4:53 AM,80.1,55.0,42,29.92,10.0,WNW,3.5,-,N/A,,Clear,300,2013-07-31 11:53:00
5:53 AM,79.0,55.0,44,29.94,10.0,Calm,Calm,-,N/A,,Clear,0,2013-07-31 12:53:00
6:53 AM,80.1,55.9,43,29.94,10.0,Calm,Calm,-,N/A,,Scattered Clouds,0,2013-07-31 13:53:00
7:53 AM,84.0,54.0,35,29.94,10.0,WNW,4.6,-,N/A,,Clear,290,2013-07-31 14:53:00
8:53 AM,88.0,55.9,34,29.95,10.0,Calm,Calm,-,N/A,,Scattered Clouds,0,2013-07-31 15:53:00
9:53 AM,93.0,55.0,28,29.95,10.0,Calm,Calm,-,N/A,,Clear,0,2013-07-31 16:53:00
10:53 AM,99.0,52.0,21,29.95,10.0,Calm,Calm,-,N/A,,Clear,0,2013-07-31 17:53:00
11:53 AM,100.9,52.0,19,29.93,10.0,Variable,3.5,-,N/A,,Clear,0,2013-07-31 18:53:00
12:53 PM,102.0,53.1,19,29.90,10.0,Calm,Calm,-,N/A,,Scattered Clouds,0,2013-07-31 19:53:00
1:53 PM,105.1,53.1,18,29.88,10.0,NNE,3.5,-,N/A,,Mostly Cloudy,30,2013-07-31 20:53:00
2:53 PM,106.0,51.1,16,29.85,10.0,ENE,5.8,-,N/A,,Mostly Cloudy,70,2013-07-31 21:53:00
3:53 PM,107.1,46.9,13,29.83,10.0,NW,12.7,18.4,N/A,,Clear,310,2013-07-31 22:53:00
4:53 PM,106.0,41.0,11,29.81,10.0,NW,12.7,-,N/A,,Clear,320,2013-07-31 23:53:00
5:53 PM,102.9,41.0,12,29.79,10.0,NW,19.6,23.0,N/A,,Clear,320,2013-08-01 00:53:00
6:53 PM,100.0,42.1,14,29.79,10.0,NW,21.9,27.6,N/A,,Clear,320,2013-08-01 01:53:00
7:53 PM,96.1,44.1,17,29.80,10.0,NW,18.4,26.5,N/A,,Clear,310,2013-08-01 02:53:00
8:53 PM,91.9,48.0,22,29.80,10.0,NW,18.4,-,N/A,,Clear,320,2013-08-01 03:53:00
9:53 PM,89.1,50.0,26,29.82,10.0,NW,10.4,20.7,N/A,,Clear,310,2013-08-01 04:53:00
10:53 PM,86.0,48.9,28,29.83,10.0,Calm,Calm,-,N/A,,Clear,0,2013-08-01 05:53:00
11:53 PM,81.0,52.0,36,29.83,10.0,NW,12.7,-,N/A,,Clear,320,2013-08-01 06:53:00